Location: Sabalos
(43.2860°N, 0.1414°E)
Time: 21:04:02
(UTC+00:00)

Cosmos 2056 Rocket - Pass Details

Date: 05 July 2020
Orbit: 741 x 801 km, 74.0° (Epoch: 14 August)

Event Time Altitude Azimuth Distance (km) Brightness Sun altitude
Rises 22:58:47 0° 341° (NNW) 3,304 8.3 -22.4°
Reaches altitude 10° 23:01:11 10° 343° (NNW) 2,376 7.2 -22.5°
Maximum altitude 23:06:37 74° 69° (ENE) 835 3.6 -22.7°
Enters shadow 23:07:56 52° 137° (SE) 994 3.7 -22.8°
